Regional Weather Roundup
Issued by NWS Sterling, VA

Home | Current Version | Previous Version | Graphics & Text | Print | Product List | Glossary On
Versions: 1 2 3 4 5 6 7 8 9 10 11 12 13 14 15 16 17 18 19 20 21 22 23 24 25 26 27 28 29 30 31 32 33 34 35 36 37 38 39 40 41 42 43 44 45 46 47 48 49
000
ASUS41 KLWX 241910
RWRLWX

REGIONAL WEATHER ROUNDUP
NATIONAL WEATHER SERVICE BALTIMORE MD/WASHINGTON DC
300 PM EDT FRI APR 24 2015

Note: "FAIR" indicates few or no clouds below 12,000 feet
with no significant weather and/or obstructions to visibility.
 TC=TEMPERATURE CELSIUS

 * =Non NWS site. Station does not report precipitation (e.g. rain,
    snow, etc.), thunder, or fog.

DCZ001-MDZ009-015-VAZ040>042-051-053>054-242000-
WASHINGTON METRO

CITY           SKY/WX    TMP DP  RH WIND       PRES   REMARKS
WASHINGTON NAT MOSUNNY   60  22  23 NW16G26   29.95F
DULLES         SUNNY     56  18  22 NW20G30   29.94F
ANDREWS AFB    SUNNY     55  21  26 W17G24    29.92F
FT BELVOIR     SUNNY     58  18  20 NW15G24   29.94F
QUANTICO       SUNNY     60  16  18 N17G26    29.95F
COLLEGE PARK*  SUNNY     55  19  24 W13G25    29.94F
LEESBURG*      SUNNY     57  27  30 W20G32    29.95F
MANASSAS*      SUNNY     59  18  20 NW17G28   29.95F
GAITHERSBURG*  SUNNY     55  21  26 NW12G21   29.97F

$$

MDZ006>007-011-014-242000-
BALTIMORE METRO

CITY           SKY/WX    TMP DP  RH WIND       PRES   REMARKS
BWI AIRPORT    MOSUNNY   56  22  26 W21G32    29.92F
MD SCIENCE CTR   N/A     55  17  22 MISG      29.93F
MARTIN STATE   MOSUNNY   57  25  28 W20G28    29.93F
ANNAPOLIS      SUNNY     54  21  27 NW15G22   29.93F
FORT MEADE*    SUNNY     55  21  26 NW16G22   29.95F

$$

MDZ012-015-019>023-242000-
MARYLAND EASTERN SHORE

CITY           SKY/WX    TMP DP  RH WIND       PRES   REMARKS
OCEAN CITY     SUNNY     54  21  27 NW17G28   29.92F
SALISBURY      SUNNY     54  18  24 NW21G29   29.93F
BAY BRIDGE AP*   N/A    N/A N/A N/A NW9       29.93F
CAMBRIDGE*     SUNNY     55  19  24 NW14G23   29.93F
EASTON*        MOSUNNY   55  25  30 NW17G35   29.97F

$$

MDZ017>025-242000-
SOUTHERN MARYLAND

CITY           SKY/WX    TMP DP  RH WIND       PRES   REMARKS
PATUXENT RIVER MOSUNNY   56  19  23 W21G28    29.94F
ST INIGOES     SUNNY     56  24  29 W13G26    29.94F
LEONARDTOWN*   SUNNY     55  18  22 W14G24    29.95F

$$

MDZ003>005-242000-
NORTH CENTRAL MARYLAND

CITY           SKY/WX    TMP DP  RH WIND       PRES   REMARKS
FREDERICK*     MOSUNNY   57  12  17 W16G26    29.97F
HAGERSTOWN APT SUNNY     56  20  24 W20G26    29.93F
WESTMINSTER*   SUNNY     55  16  21 NW20G29   29.92S

$$

MDZ501>502-242000-
WESTERN MARYLAND

CITY           SKY/WX    TMP DP  RH WIND       PRES   REMARKS
OAKLAND*       SUNNY     45  19  36 W15G25    29.95S
CUMBERLAND*    SUNNY     55  19  24 NW10G25   30.00F

$$

VAZ025>031-242000-
SHENANDOAH VALLEY

CITY           SKY/WX    TMP DP  RH WIND       PRES   REMARKS
WINCHESTER*    SUNNY     57   7  13 NW16G30   29.95F
FRONT ROYAL*   FAIR      59  18  20 NW15G25   29.93F
LURAY*         FAIR      61  19  20 W10G23    29.95F
NEW MARKET*    FAIR      57  14  18 CALM      29.95F
STAUNTON*      SUNNY     60  11  14 NW12      29.97F
WAYNESBORO*    FAIR      58  13  17 W10G16    29.96S

$$

WVZ021-048>050-054>055-242000-
EASTERN WEST VIRGINIA PANHANDLE

CITY           SKY/WX    TMP DP  RH WIND       PRES   REMARKS
MARTINSBURG    SUNNY     57  18  21 NW22G28   29.94F
PETERSBURG*    SUNNY     56  13  18 NW16G23   29.98F

$$

VAZ036>039-050-242000-
CENTRAL FOOTHILLS

CITY           SKY/WX    TMP DP  RH WIND       PRES   REMARKS
CHARLOTTESVILL SUNNY     61  15  16 NW8G17    29.94F
CULPEPER*      SUNNY     61  18  18 W12G17    29.95F
ORANGE*        SUNNY     61  21  21 W6G21     29.97F
GORDONSVILLE*  FAIR      59  18  20 NW8       29.95F
WARRENTON*     FAIR      61  23  23 NW9G18    29.94F

$$

VAZ055>057-242000-
NORTH AND CENTRAL PIEDMONT

CITY           SKY/WX    TMP DP  RH WIND       PRES   REMARKS
FREDERICKSBRG* SUNNY     61  20  21 NW13G20   29.94F
STAFFORD*      SUNNY     58  17  20 NW13      29.99F

$$

NCZ024-NYZ072-PAZ021-071-VAZ022-071-242000-
OTHER REGIONAL OBSERVATIONS

CITY           SKY/WX    TMP DP  RH WIND       PRES   REMARKS
NEW YORK CITY  PTSUNNY   50  18  28 MISG      29.85F
PHILADELPHIA   MOSUNNY   54  17  23 NW18G24   29.88F
PITTSBURGH     MOSUNNY   53  21  28 NW23G31   30.01F
ROANOKE        MOSUNNY   62  18  18 NW15G25   30.01F
RICHMOND       MOSUNNY   63  19  18 W17G23    29.96F
RALEIGH        MOSUNNY   65  26  23 VRB5      30.02F

$$

ANZ530>537-242000-
MARINE OBSERVATIONS

STATION/POSITION TIME  TEMP    WIND        PRES
                       AIR SEA DIR/SP/G
                 (UTC) (F)     (DEG/KT/KT) (MB)
THOMAS PT LIGHT  1900   52 53  290/ 15/ 17 1014.0F
BALT KEY BRIDGE  1800   50     300/ 21/ 25 1013.6F
COVE POINT       1800   50     340/ 15/ 21 1015.0F
LEWISETTA        1800   53 58              1014.8F
SOLOMONS ISLAND  1800      57                N/A
PINEY POINT      1800          310/ 21/ 24   N/A

$$




USA.gov is the U.S. government's official web portal to all federal, state and local government web resources and services.